Time,TemperatureF,DewpointF,PressureIn,WindDirection,WindDirectionDegrees,WindSpeedMPH,WindSpeedGustMPH,Humidity,HourlyPrecipIn,Conditions,Clouds,dailyrainin,SoftwareType,DateUTC
2013-05-10 00:04:00,63.7,41.4,0.00,North,0,0.0,0.0,44,0.00,,,0.00,VWS V13.01,2013-05-10 04:04:00,
2013-05-10 00:09:00,64.4,36.9,0.00,North,0,0.0,0.0,36,0.00,,,0.00,VWS V13.01,2013-05-10 04:09:00,
2013-05-10 00:14:00,66.0,35.3,0.00,North,0,0.0,0.0,32,0.00,,,0.00,VWS V13.01,2013-05-10 04:14:00,
2013-05-10 00:19:00,66.9,31.9,0.00,North,0,0.0,0.0,27,0.00,,,0.00,VWS V13.01,2013-05-10 04:19:00,
2013-05-10 00:24:00,67.5,30.4,0.00,North,0,0.0,0.0,25,0.00,,,0.00,VWS V13.01,2013-05-10 04:24:00,
2013-05-10 00:29:00,67.6,30.6,0.00,North,0,0.0,0.0,25,0.00,,,0.00,VWS V13.01,2013-05-10 04:29:00,
2013-05-10 00:34:00,67.6,30.6,0.00,North,0,0.0,0.0,25,0.00,,,0.00,VWS V13.01,2013-05-10 04:34:00,
2013-05-10 00:39:00,67.5,30.4,0.00,North,0,0.0,0.0,25,0.00,,,0.00,VWS V13.01,2013-05-10 04:39:00,
2013-05-10 00:44:00,67.3,30.3,0.00,North,0,0.0,0.0,25,0.00,,,0.00,VWS V13.01,2013-05-10 04:44:00,
2013-05-10 00:49:00,67.3,31.2,0.00,North,0,0.0,0.0,26,0.00,,,0.00,VWS V13.01,2013-05-10 04:49:00,
2013-05-10 00:54:00,67.1,31.1,0.00,North,0,0.0,0.0,26,0.00,,,0.00,VWS V13.01,2013-05-10 04:54:00,
2013-05-10 00:59:00,66.4,35.7,0.00,North,0,0.0,0.0,32,0.00,,,0.00,VWS V13.01,2013-05-10 04:59:00,
2013-05-10 01:04:00,64.9,36.7,0.00,North,0,0.0,0.0,35,0.00,,,0.00,VWS V13.01,2013-05-10 05:04:00,
2013-05-10 01:09:00,65.1,35.3,0.00,North,0,0.0,0.0,33,0.00,,,0.00,VWS V13.01,2013-05-10 05:09:00,
2013-05-10 01:14:00,65.8,32.7,0.00,North,0,0.0,0.0,29,0.00,,,0.00,VWS V13.01,2013-05-10 05:14:00,
2013-05-10 01:21:00,66.4,31.4,0.00,North,0,0.0,0.0,27,0.00,,,0.00,VWS V13.01,2013-05-10 05:21:00,
2013-05-10 01:31:00,65.1,35.3,0.00,North,0,0.0,0.0,33,0.00,,,0.00,VWS V13.01,2013-05-10 05:31:00,
2013-05-10 01:36:00,64.8,35.0,0.00,North,0,0.0,0.0,33,0.00,,,0.00,VWS V13.01,2013-05-10 05:36:00,
2013-05-10 01:41:00,65.1,35.3,0.00,North,0,0.0,0.0,33,0.00,,,0.00,VWS V13.01,2013-05-10 05:41:00,
2013-05-10 01:51:00,65.3,34.7,0.00,North,0,0.0,0.0,32,0.00,,,0.00,VWS V13.01,2013-05-10 05:51:00,
2013-05-10 01:56:00,64.9,35.2,0.00,North,0,0.0,0.0,33,0.00,,,0.00,VWS V13.01,2013-05-10 05:56:00,
2013-05-10 02:01:00,65.1,34.6,0.00,North,0,0.0,0.0,32,0.00,,,0.00,VWS V13.01,2013-05-10 06:01:00,
2013-05-10 02:06:00,66.0,32.0,0.00,North,0,0.0,0.0,28,0.00,,,0.00,VWS V13.01,2013-05-10 06:06:00,
2013-05-10 02:16:00,66.0,31.1,0.00,North,0,0.0,0.0,27,0.00,,,0.00,VWS V13.01,2013-05-10 06:16:00,
2013-05-10 02:21:00,65.3,33.1,0.00,North,0,0.0,0.0,30,0.00,,,0.00,VWS V13.01,2013-05-10 06:21:00,
2013-05-10 02:26:00,65.7,33.4,0.00,North,0,0.0,0.0,30,0.00,,,0.00,VWS V13.01,2013-05-10 06:26:00,
2013-05-10 02:31:00,65.7,33.4,0.00,North,0,0.0,0.0,30,0.00,,,0.00,VWS V13.01,2013-05-10 06:31:00,
2013-05-10 02:36:00,66.0,32.9,0.00,North,0,0.0,0.0,29,0.00,,,0.00,VWS V13.01,2013-05-10 06:36:00,
2013-05-10 02:41:00,66.4,31.4,0.00,North,0,0.0,0.0,27,0.00,,,0.00,VWS V13.01,2013-05-10 06:41:00,
2013-05-10 02:46:00,66.4,31.4,0.00,North,0,0.0,0.0,27,0.00,,,0.00,VWS V13.01,2013-05-10 06:46:00,
2013-05-10 02:51:00,65.8,32.7,0.00,North,0,0.0,0.0,29,0.00,,,0.00,VWS V13.01,2013-05-10 06:51:00,
2013-05-10 02:56:00,64.2,34.5,0.00,North,0,0.0,0.0,33,0.00,,,0.00,VWS V13.01,2013-05-10 06:56:00,
2013-05-10 03:01:00,63.1,35.1,0.00,North,0,0.0,0.0,35,0.00,,,0.00,VWS V13.01,2013-05-10 07:01:00,
2013-05-10 03:06:00,62.2,37.0,0.00,North,0,0.0,0.0,39,0.00,,,0.00,VWS V13.01,2013-05-10 07:06:00,
2013-05-10 03:11:00,62.4,40.2,0.00,North,0,0.0,0.0,44,0.00,,,0.00,VWS V13.01,2013-05-10 07:11:00,
2013-05-10 03:16:00,62.4,38.4,0.00,North,0,0.0,0.0,41,0.00,,,0.00,VWS V13.01,2013-05-10 07:16:00,
2013-05-10 03:22:00,61.9,39.2,0.00,North,0,0.0,0.0,43,0.00,,,0.00,VWS V13.01,2013-05-10 07:22:00,
2013-05-10 03:27:00,61.5,39.4,0.00,North,0,0.0,0.0,44,0.00,,,0.00,VWS V13.01,2013-05-10 07:27:00,
2013-05-10 03:32:00,61.2,39.7,0.00,North,0,0.0,0.0,45,0.00,,,0.00,VWS V13.01,2013-05-10 07:32:00,
2013-05-10 03:37:00,60.8,39.3,0.00,North,0,0.0,0.0,45,0.00,,,0.00,VWS V13.01,2013-05-10 07:37:00,
2013-05-10 03:42:00,60.6,40.3,0.00,North,0,0.0,0.0,47,0.00,,,0.00,VWS V13.01,2013-05-10 07:42:00,
2013-05-10 03:47:00,60.3,40.5,0.00,North,0,0.0,0.0,48,0.00,,,0.00,VWS V13.01,2013-05-10 07:47:00,
2013-05-10 03:52:00,59.9,40.2,0.00,North,0,0.0,0.0,48,0.00,,,0.00,VWS V13.01,2013-05-10 07:52:00,
2013-05-10 03:57:00,59.7,41.1,0.00,North,0,0.0,0.0,50,0.00,,,0.00,VWS V13.01,2013-05-10 07:57:00,
2013-05-10 04:02:00,59.5,42.4,0.00,North,0,0.0,0.0,53,0.00,,,0.00,VWS V13.01,2013-05-10 08:02:00,
2013-05-10 04:07:00,59.4,42.7,0.00,North,0,0.0,0.0,54,0.00,,,0.00,VWS V13.01,2013-05-10 08:07:00,
2013-05-10 04:12:00,59.2,43.5,0.00,North,0,0.0,0.0,56,0.00,,,0.00,VWS V13.01,2013-05-10 08:12:00,
2013-05-10 04:17:00,58.8,43.6,0.00,North,0,0.0,0.0,57,0.00,,,0.00,VWS V13.01,2013-05-10 08:17:00,
2013-05-10 04:22:00,58.8,44.5,0.00,North,0,0.0,0.0,59,0.00,,,0.00,VWS V13.01,2013-05-10 08:22:00,
2013-05-10 04:27:00,58.8,45.0,0.00,North,0,0.0,0.0,60,0.00,,,0.00,VWS V13.01,2013-05-10 08:27:00,
2013-05-10 04:32:00,59.0,45.6,0.00,North,0,0.0,0.0,61,0.00,,,0.00,VWS V13.01,2013-05-10 08:32:00,
2013-05-10 04:37:00,58.8,45.4,0.00,North,0,0.0,0.0,61,0.00,,,0.00,VWS V13.01,2013-05-10 08:37:00,
2013-05-10 04:42:00,58.8,45.8,0.00,North,0,0.0,0.0,62,0.00,,,0.00,VWS V13.01,2013-05-10 08:42:00,
2013-05-10 04:47:00,58.8,45.8,0.00,North,0,0.0,0.0,62,0.00,,,0.00,VWS V13.01,2013-05-10 08:47:00,
2013-05-10 04:52:00,58.8,45.8,0.00,North,0,0.0,0.0,62,0.00,,,0.00,VWS V13.01,2013-05-10 08:52:00,
2013-05-10 04:57:00,58.8,46.7,0.00,North,0,0.0,0.0,64,0.00,,,0.00,VWS V13.01,2013-05-10 08:57:00,
2013-05-10 05:02:00,58.8,46.3,0.00,North,0,0.0,0.0,63,0.00,,,0.00,VWS V13.01,2013-05-10 09:02:00,
2013-05-10 05:07:00,58.6,46.1,0.00,North,0,0.0,0.0,63,0.00,,,0.00,VWS V13.01,2013-05-10 09:07:00,
2013-05-10 05:12:00,58.6,46.1,0.00,North,0,0.0,0.0,63,0.00,,,0.00,VWS V13.01,2013-05-10 09:12:00,
2013-05-10 05:17:00,58.5,45.9,0.00,North,0,0.0,0.0,63,0.00,,,0.00,VWS V13.01,2013-05-10 09:17:00,
2013-05-10 05:22:00,58.5,45.9,0.00,North,0,0.0,0.0,63,0.00,,,0.00,VWS V13.01,2013-05-10 09:22:00,
2013-05-10 05:27:00,58.6,46.5,0.00,North,0,0.0,0.0,64,0.00,,,0.00,VWS V13.01,2013-05-10 09:27:00,
2013-05-10 05:32:00,58.5,45.9,0.00,North,0,0.0,0.0,63,0.00,,,0.00,VWS V13.01,2013-05-10 09:32:00,
2013-05-10 05:37:00,58.5,45.9,0.00,North,0,0.0,0.0,63,0.00,,,0.00,VWS V13.01,2013-05-10 09:37:00,
2013-05-10 05:42:00,58.6,46.1,0.00,North,0,0.0,0.0,63,0.00,,,0.00,VWS V13.01,2013-05-10 09:42:00,
2013-05-10 05:47:00,58.8,46.7,0.00,North,0,0.0,0.0,64,0.00,,,0.00,VWS V13.01,2013-05-10 09:47:00,
2013-05-10 05:52:00,58.8,46.7,0.00,North,0,0.0,0.0,64,0.00,,,0.00,VWS V13.01,2013-05-10 09:52:00,
2013-05-10 05:57:00,58.8,46.7,0.00,North,0,0.0,0.0,64,0.00,,,0.00,VWS V13.01,2013-05-10 09:57:00,
2013-05-10 06:02:00,58.6,46.1,0.00,North,0,0.0,0.0,63,0.00,,,0.00,VWS V13.01,2013-05-10 10:02:00,
2013-05-10 06:07:00,58.6,46.1,0.00,North,0,0.0,0.0,63,0.00,,,0.00,VWS V13.01,2013-05-10 10:07:00,
2013-05-10 06:12:00,58.5,45.9,0.00,North,0,0.0,0.0,63,0.00,,,0.00,VWS V13.01,2013-05-10 10:12:00,
2013-05-10 06:17:00,58.5,45.9,0.00,North,0,0.0,0.0,63,0.00,,,0.00,VWS V13.01,2013-05-10 10:17:00,
2013-05-10 06:22:00,58.3,45.8,0.00,North,0,0.0,0.0,63,0.00,,,0.00,VWS V13.01,2013-05-10 10:22:00,
2013-05-10 06:27:00,58.3,46.2,0.00,North,0,0.0,0.0,64,0.00,,,0.00,VWS V13.01,2013-05-10 10:27:00,
2013-05-10 06:32:00,58.3,46.2,0.00,North,0,0.0,0.0,64,0.00,,,0.00,VWS V13.01,2013-05-10 10:32:00,
2013-05-10 06:37:00,58.6,46.9,0.00,North,0,0.0,0.0,65,0.00,,,0.00,VWS V13.01,2013-05-10 10:37:00,
2013-05-10 06:42:00,59.9,48.1,0.00,North,0,0.0,0.0,65,0.00,,,0.00,VWS V13.01,2013-05-10 10:42:00,
2013-05-10 06:47:00,61.7,47.7,0.00,North,0,0.0,0.0,60,0.00,,,0.00,VWS V13.01,2013-05-10 10:47:00,
2013-05-10 06:52:00,63.1,40.9,0.00,North,0,0.0,0.0,44,0.00,,,0.00,VWS V13.01,2013-05-10 10:52:00,
2013-05-10 06:57:00,63.9,38.5,0.00,North,0,0.0,0.0,39,0.00,,,0.00,VWS V13.01,2013-05-10 10:57:00,
2013-05-10 07:02:00,63.1,36.5,0.00,North,0,0.0,0.0,37,0.00,,,0.00,VWS V13.01,2013-05-10 11:02:00,
2013-05-10 07:07:00,62.4,37.8,0.00,North,0,0.0,0.0,40,0.00,,,0.00,VWS V13.01,2013-05-10 11:07:00,
2013-05-10 07:12:00,61.9,39.2,0.00,North,0,0.0,0.0,43,0.00,,,0.00,VWS V13.01,2013-05-10 11:12:00,
2013-05-10 07:17:00,61.9,40.9,0.00,North,0,0.0,0.0,46,0.00,,,0.00,VWS V13.01,2013-05-10 11:17:00,
2013-05-10 07:22:00,62.2,40.7,0.00,North,0,0.0,0.0,45,0.00,,,0.00,VWS V13.01,2013-05-10 11:22:00,
2013-05-10 07:27:00,62.8,40.0,0.00,North,0,0.0,0.0,43,0.00,,,0.00,VWS V13.01,2013-05-10 11:27:00,
2013-05-10 07:32:00,63.7,38.3,0.00,North,0,0.0,0.0,39,0.00,,,0.00,VWS V13.01,2013-05-10 11:32:00,
2013-05-10 07:37:00,63.7,37.6,0.00,North,0,0.0,0.0,38,0.00,,,0.00,VWS V13.01,2013-05-10 11:37:00,
2013-05-10 07:42:00,63.3,37.3,0.00,North,0,0.0,0.0,38,0.00,,,0.00,VWS V13.01,2013-05-10 11:42:00,
2013-05-10 07:47:00,63.0,38.3,0.00,North,0,0.0,0.0,40,0.00,,,0.00,VWS V13.01,2013-05-10 11:47:00,
2013-05-10 07:52:00,63.0,40.1,0.00,North,0,0.0,0.0,43,0.00,,,0.00,VWS V13.01,2013-05-10 11:52:00,
2013-05-10 07:57:00,63.1,40.3,0.00,North,0,0.0,0.0,43,0.00,,,0.00,VWS V13.01,2013-05-10 11:57:00,
2013-05-10 08:02:00,63.5,40.0,0.00,North,0,0.0,0.0,42,0.00,,,0.00,VWS V13.01,2013-05-10 12:02:00,
2013-05-10 08:07:00,64.0,39.2,0.00,North,0,0.0,0.0,40,0.00,,,0.00,VWS V13.01,2013-05-10 12:07:00,
2013-05-10 08:12:00,64.4,38.3,0.00,North,0,0.0,0.0,38,0.00,,,0.00,VWS V13.01,2013-05-10 12:12:00,
2013-05-10 08:17:00,64.4,38.3,0.00,North,0,0.0,0.0,38,0.00,,,0.00,VWS V13.01,2013-05-10 12:17:00,
2013-05-10 08:22:00,64.6,38.4,0.00,North,0,0.0,0.0,38,0.00,,,0.00,VWS V13.01,2013-05-10 12:22:00,
2013-05-10 08:27:00,64.6,37.8,0.00,North,0,0.0,0.0,37,0.00,,,0.00,VWS V13.01,2013-05-10 12:27:00,
2013-05-10 08:32:00,65.1,38.2,0.00,North,0,0.0,0.0,37,0.00,,,0.00,VWS V13.01,2013-05-10 12:32:00,
2013-05-10 08:37:00,65.7,37.3,0.00,North,0,0.0,0.0,35,0.00,,,0.00,VWS V13.01,2013-05-10 12:37:00,
2013-05-10 08:42:00,66.4,36.4,0.00,North,0,0.0,0.0,33,0.00,,,0.00,VWS V13.01,2013-05-10 12:42:00,
2013-05-10 08:47:00,66.9,35.3,0.00,North,0,0.0,0.0,31,0.00,,,0.00,VWS V13.01,2013-05-10 12:47:00,
2013-05-10 08:52:00,67.5,33.2,0.00,North,0,0.0,0.0,28,0.00,,,0.00,VWS V13.01,2013-05-10 12:52:00,
2013-05-10 08:57:00,67.5,32.3,0.00,North,0,0.0,0.0,27,0.00,,,0.00,VWS V13.01,2013-05-10 12:57:00,
2013-05-10 09:02:00,67.3,33.1,0.00,North,0,0.0,0.0,28,0.00,,,0.00,VWS V13.01,2013-05-10 13:02:00,
2013-05-10 09:07:00,67.5,34.1,0.00,North,0,0.0,0.0,29,0.00,,,0.00,VWS V13.01,2013-05-10 13:07:00,
2013-05-10 09:12:00,67.5,34.1,0.00,North,0,0.0,0.0,29,0.00,,,0.00,VWS V13.01,2013-05-10 13:12:00,
2013-05-10 09:17:00,67.6,34.3,0.00,North,0,0.0,0.0,29,0.00,,,0.00,VWS V13.01,2013-05-10 13:17:00,
2013-05-10 09:22:00,68.0,33.7,0.00,North,0,0.0,0.0,28,0.00,,,0.00,VWS V13.01,2013-05-10 13:22:00,
2013-05-10 09:27:00,68.2,33.0,0.00,North,0,0.0,0.0,27,0.00,,,0.00,VWS V13.01,2013-05-10 13:27:00,
2013-05-10 09:32:00,68.5,32.3,0.00,North,0,0.0,0.0,26,0.00,,,0.00,VWS V13.01,2013-05-10 13:32:00,
2013-05-10 09:37:00,68.7,32.5,0.00,North,0,0.0,0.0,26,0.00,,,0.00,VWS V13.01,2013-05-10 13:37:00,
2013-05-10 09:42:00,69.1,34.6,0.00,North,0,0.0,0.0,28,0.00,,,0.00,VWS V13.01,2013-05-10 13:42:00,
2013-05-10 09:47:00,69.3,33.9,0.00,North,0,0.0,0.0,27,0.00,,,0.00,VWS V13.01,2013-05-10 13:47:00,
2013-05-10 09:52:00,69.4,33.1,0.00,North,0,0.0,0.0,26,0.00,,,0.00,VWS V13.01,2013-05-10 13:52:00,
2013-05-10 09:57:00,69.8,32.4,0.00,North,0,0.0,0.0,25,0.00,,,0.00,VWS V13.01,2013-05-10 13:57:00,
2013-05-10 10:02:00,70.2,31.7,0.00,North,0,0.0,0.0,24,0.00,,,0.00,VWS V13.01,2013-05-10 14:02:00,
2013-05-10 10:07:00,70.7,31.1,0.00,North,0,0.0,0.0,23,0.00,,,0.00,VWS V13.01,2013-05-10 14:07:00,
2013-05-10 10:12:00,71.2,30.5,0.00,North,0,0.0,0.0,22,0.00,,,0.00,VWS V13.01,2013-05-10 14:12:00,
2013-05-10 10:17:00,71.8,30.9,0.00,North,0,0.0,0.0,22,0.00,,,0.00,VWS V13.01,2013-05-10 14:17:00,
2013-05-10 10:22:00,72.1,30.1,0.00,North,0,0.0,0.0,21,0.00,,,0.00,VWS V13.01,2013-05-10 14:22:00,
2013-05-10 10:27:00,72.3,30.2,0.00,North,0,0.0,0.0,21,0.00,,,0.00,VWS V13.01,2013-05-10 14:27:00,
2013-05-10 10:32:00,72.5,30.4,0.00,North,0,0.0,0.0,21,0.00,,,0.00,VWS V13.01,2013-05-10 14:32:00,
2013-05-10 10:37:00,72.7,28.1,0.00,North,0,0.0,0.0,19,0.00,,,0.00,VWS V13.01,2013-05-10 14:37:00,
2013-05-10 10:42:00,72.7,28.1,0.00,North,0,0.0,0.0,19,0.00,,,0.00,VWS V13.01,2013-05-10 14:42:00,
2013-05-10 10:47:00,72.7,28.1,0.00,North,0,0.0,0.0,19,0.00,,,0.00,VWS V13.01,2013-05-10 14:47:00,
2013-05-10 10:52:00,72.7,28.1,0.00,North,0,0.0,0.0,19,0.00,,,0.00,VWS V13.01,2013-05-10 14:52:00,
2013-05-10 10:57:00,72.9,28.2,0.00,North,0,0.0,0.0,19,0.00,,,0.00,VWS V13.01,2013-05-10 14:57:00,
2013-05-10 11:02:00,72.9,28.2,0.00,North,0,0.0,0.0,19,0.00,,,0.00,VWS V13.01,2013-05-10 15:02:00,
2013-05-10 11:08:00,73.0,28.4,0.00,North,0,0.0,0.0,19,0.00,,,0.00,VWS V13.01,2013-05-10 15:08:00,
2013-05-10 11:12:00,73.2,28.5,0.00,North,0,0.0,0.0,19,0.00,,,0.00,VWS V13.01,2013-05-10 15:12:00,
2013-05-10 11:18:00,73.2,28.5,0.00,North,0,0.0,0.0,19,0.00,,,0.00,VWS V13.01,2013-05-10 15:18:00,
2013-05-10 11:23:00,73.4,27.4,0.00,North,0,0.0,0.0,18,0.00,,,0.00,VWS V13.01,2013-05-10 15:23:00,
2013-05-10 11:28:00,73.2,28.5,0.00,North,0,0.0,0.0,19,0.00,,,0.00,VWS V13.01,2013-05-10 15:28:00,
2013-05-10 11:33:00,73.2,28.5,0.00,North,0,0.0,0.0,19,0.00,,,0.00,VWS V13.01,2013-05-10 15:33:00,
2013-05-10 11:38:00,73.0,28.4,0.00,North,0,0.0,0.0,19,0.00,,,0.00,VWS V13.01,2013-05-10 15:38:00,
2013-05-10 11:43:00,72.9,28.2,0.00,North,0,0.0,0.0,19,0.00,,,0.00,VWS V13.01,2013-05-10 15:43:00,
2013-05-10 11:48:00,72.7,31.7,0.00,North,0,0.0,0.0,22,0.00,,,0.00,VWS V13.01,2013-05-10 15:48:00,
2013-05-10 11:53:00,72.0,31.1,0.00,North,0,0.0,0.0,22,0.00,,,0.00,VWS V13.01,2013-05-10 15:53:00,
2013-05-10 11:58:00,71.6,30.8,0.00,North,0,0.0,0.0,22,0.00,,,0.00,VWS V13.01,2013-05-10 15:58:00,
2013-05-10 12:03:00,71.4,32.8,0.00,North,0,0.0,0.0,24,0.00,,,0.00,VWS V13.01,2013-05-10 16:03:00,
2013-05-10 12:08:00,71.1,32.5,0.00,North,0,0.0,0.0,24,0.00,,,0.00,VWS V13.01,2013-05-10 16:08:00,
2013-05-10 12:13:00,70.9,33.3,0.00,North,0,0.0,0.0,25,0.00,,,0.00,VWS V13.01,2013-05-10 16:13:00,
2013-05-10 12:18:00,70.7,33.2,0.00,North,0,0.0,0.0,25,0.00,,,0.00,VWS V13.01,2013-05-10 16:18:00,
2013-05-10 12:23:00,70.5,33.0,0.00,North,0,0.0,0.0,25,0.00,,,0.00,VWS V13.01,2013-05-10 16:23:00,
2013-05-10 12:28:00,70.5,33.0,0.00,North,0,0.0,0.0,25,0.00,,,0.00,VWS V13.01,2013-05-10 16:28:00,
2013-05-10 12:33:00,70.5,33.0,0.00,North,0,0.0,0.0,25,0.00,,,0.00,VWS V13.01,2013-05-10 16:33:00,
2013-05-10 12:38:00,70.3,32.9,0.00,North,0,0.0,0.0,25,0.00,,,0.00,VWS V13.01,2013-05-10 16:38:00,
2013-05-10 12:43:00,69.8,34.3,0.00,North,0,0.0,0.0,27,0.00,,,0.00,VWS V13.01,2013-05-10 16:43:00,
2013-05-10 12:48:00,69.1,37.2,0.00,North,0,0.0,0.0,31,0.00,,,0.00,VWS V13.01,2013-05-10 16:48:00,
2013-05-10 12:53:00,68.7,38.5,0.00,North,0,0.0,0.0,33,0.00,,,0.00,VWS V13.01,2013-05-10 16:53:00,
2013-05-10 12:58:00,68.4,38.9,0.00,North,0,0.0,0.0,34,0.00,,,0.00,VWS V13.01,2013-05-10 16:58:00,
2013-05-10 13:03:00,68.0,39.3,0.00,North,0,0.0,0.0,35,0.00,,,0.00,VWS V13.01,2013-05-10 17:03:00,
2013-05-10 13:08:00,67.8,39.9,0.00,North,0,0.0,0.0,36,0.00,,,0.00,VWS V13.01,2013-05-10 17:08:00,
2013-05-10 13:13:00,67.6,41.2,0.00,North,0,0.0,0.0,38,0.00,,,0.00,VWS V13.01,2013-05-10 17:13:00,
2013-05-10 13:18:00,67.5,41.0,0.00,North,0,0.0,0.0,38,0.00,,,0.00,VWS V13.01,2013-05-10 17:18:00,
2013-05-10 13:23:00,67.3,41.5,0.00,North,0,0.0,0.0,39,0.00,,,0.00,VWS V13.01,2013-05-10 17:23:00,
2013-05-10 13:28:00,67.3,42.2,0.00,North,0,0.0,0.0,40,0.00,,,0.00,VWS V13.01,2013-05-10 17:28:00,
2013-05-10 13:33:00,67.3,40.1,0.00,North,0,0.0,0.0,37,0.00,,,0.00,VWS V13.01,2013-05-10 17:33:00,
2013-05-10 13:38:00,67.5,38.9,0.00,North,0,0.0,0.0,35,0.00,,,0.00,VWS V13.01,2013-05-10 17:38:00,
2013-05-10 13:43:00,67.6,38.3,0.00,North,0,0.0,0.0,34,0.00,,,0.00,VWS V13.01,2013-05-10 17:43:00,
2013-05-10 13:48:00,67.8,38.5,0.00,North,0,0.0,0.0,34,0.00,,,0.00,VWS V13.01,2013-05-10 17:48:00,
2013-05-10 13:53:00,68.0,38.6,0.00,North,0,0.0,0.0,34,0.00,,,0.00,VWS V13.01,2013-05-10 17:53:00,
2013-05-10 13:58:00,68.4,38.2,0.00,North,0,0.0,0.0,33,0.00,,,0.00,VWS V13.01,2013-05-10 17:58:00,
2013-05-10 14:03:00,68.5,37.5,0.00,North,0,0.0,0.0,32,0.00,,,0.00,VWS V13.01,2013-05-10 18:03:00,
2013-05-10 14:08:00,68.7,37.7,0.00,North,0,0.0,0.0,32,0.00,,,0.00,VWS V13.01,2013-05-10 18:08:00,
2013-05-10 14:13:00,68.9,37.8,0.00,North,0,0.0,0.0,32,0.00,,,0.00,VWS V13.01,2013-05-10 18:13:00,
2013-05-10 14:18:00,68.7,36.1,0.00,North,0,0.0,0.0,30,0.00,,,0.00,VWS V13.01,2013-05-10 18:18:00,
2013-05-10 14:23:00,68.7,37.7,0.00,North,0,0.0,0.0,32,0.00,,,0.00,VWS V13.01,2013-05-10 18:23:00,
2013-05-10 14:28:00,68.7,37.7,0.00,North,0,0.0,0.0,32,0.00,,,0.00,VWS V13.01,2013-05-10 18:28:00,
2013-05-10 14:33:00,68.7,36.9,0.00,North,0,0.0,0.0,31,0.00,,,0.00,VWS V13.01,2013-05-10 18:33:00,
2013-05-10 14:38:00,68.7,35.2,0.00,North,0,0.0,0.0,29,0.00,,,0.00,VWS V13.01,2013-05-10 18:38:00,
2013-05-10 14:43:00,68.7,35.2,0.00,North,0,0.0,0.0,29,0.00,,,0.00,VWS V13.01,2013-05-10 18:43:00,
2013-05-10 14:48:00,68.7,36.9,0.00,North,0,0.0,0.0,31,0.00,,,0.00,VWS V13.01,2013-05-10 18:48:00,
2013-05-10 14:53:00,68.7,36.1,0.00,North,0,0.0,0.0,30,0.00,,,0.00,VWS V13.01,2013-05-10 18:53:00,
2013-05-10 14:58:00,68.7,36.9,0.00,North,0,0.0,0.0,31,0.00,,,0.00,VWS V13.01,2013-05-10 18:58:00,
2013-05-10 15:03:00,68.5,37.5,0.00,North,0,0.0,0.0,32,0.00,,,0.00,VWS V13.01,2013-05-10 19:03:00,
2013-05-10 15:08:00,68.4,35.8,0.00,North,0,0.0,0.0,30,0.00,,,0.00,VWS V13.01,2013-05-10 19:08:00,
2013-05-10 15:13:00,68.4,37.4,0.00,North,0,0.0,0.0,32,0.00,,,0.00,VWS V13.01,2013-05-10 19:13:00,
2013-05-10 15:18:00,68.2,37.2,0.00,North,0,0.0,0.0,32,0.00,,,0.00,VWS V13.01,2013-05-10 19:18:00,
2013-05-10 15:23:00,68.4,36.6,0.00,North,0,0.0,0.0,31,0.00,,,0.00,VWS V13.01,2013-05-10 19:23:00,
2013-05-10 15:28:00,68.5,37.5,0.00,North,0,0.0,0.0,32,0.00,,,0.00,VWS V13.01,2013-05-10 19:28:00,
2013-05-10 15:33:00,68.5,37.5,0.00,North,0,0.0,0.0,32,0.00,,,0.00,VWS V13.01,2013-05-10 19:33:00,
2013-05-10 15:38:00,68.5,37.5,0.00,North,0,0.0,0.0,32,0.00,,,0.00,VWS V13.01,2013-05-10 19:38:00,
2013-05-10 15:43:00,68.5,36.7,0.00,North,0,0.0,0.0,31,0.00,,,0.00,VWS V13.01,2013-05-10 19:43:00,
2013-05-10 15:48:00,68.5,37.5,0.00,North,0,0.0,0.0,32,0.00,,,0.00,VWS V13.01,2013-05-10 19:48:00,
2013-05-10 15:53:00,68.5,35.9,0.00,North,0,0.0,0.0,30,0.00,,,0.00,VWS V13.01,2013-05-10 19:53:00,
2013-05-10 15:58:00,68.5,36.7,0.00,North,0,0.0,0.0,31,0.00,,,0.00,VWS V13.01,2013-05-10 19:58:00,
2013-05-10 16:03:00,68.5,37.5,0.00,North,0,0.0,0.0,32,0.00,,,0.00,VWS V13.01,2013-05-10 20:03:00,
2013-05-10 16:08:00,68.5,37.5,0.00,North,0,0.0,0.0,32,0.00,,,0.00,VWS V13.01,2013-05-10 20:08:00,
2013-05-10 16:13:00,68.5,37.5,0.00,North,0,0.0,0.0,32,0.00,,,0.00,VWS V13.01,2013-05-10 20:13:00,
2013-05-10 16:18:00,68.5,37.5,0.00,North,0,0.0,0.0,32,0.00,,,0.00,VWS V13.01,2013-05-10 20:18:00,
2013-05-10 16:23:00,68.7,37.7,0.00,North,0,0.0,0.0,32,0.00,,,0.00,VWS V13.01,2013-05-10 20:23:00,
2013-05-10 16:28:00,68.7,38.5,0.00,North,0,0.0,0.0,33,0.00,,,0.00,VWS V13.01,2013-05-10 20:28:00,
2013-05-10 16:33:00,68.7,37.7,0.00,North,0,0.0,0.0,32,0.00,,,0.00,VWS V13.01,2013-05-10 20:33:00,
2013-05-10 16:38:00,68.7,36.1,0.00,North,0,0.0,0.0,30,0.00,,,0.00,VWS V13.01,2013-05-10 20:38:00,
2013-05-10 16:43:00,68.7,36.9,0.00,North,0,0.0,0.0,31,0.00,,,0.00,VWS V13.01,2013-05-10 20:43:00,
2013-05-10 16:48:00,68.7,36.1,0.00,North,0,0.0,0.0,30,0.00,,,0.00,VWS V13.01,2013-05-10 20:48:00,
2013-05-10 16:53:00,68.7,37.7,0.00,North,0,0.0,0.0,32,0.00,,,0.00,VWS V13.01,2013-05-10 20:53:00,
2013-05-10 16:57:00,67.8,38.5,0.00,North,0,0.0,0.0,34,0.00,,,0.00,VWS V13.01,2013-05-10 20:57:00,
2013-05-10 16:58:00,68.9,36.2,0.00,North,0,0.0,0.0,30,0.00,,,0.00,VWS V13.01,2013-05-10 20:58:00,
2013-05-10 16:59:00,67.8,38.5,0.00,North,0,0.0,0.0,34,0.00,,,0.00,VWS V13.01,2013-05-10 20:59:00,
2013-05-10 17:00:00,67.8,38.5,0.00,North,0,0.0,0.0,34,0.00,,,0.00,VWS V13.01,2013-05-10 21:00:00,
2013-05-10 17:01:00,67.8,38.5,0.00,North,0,0.0,0.0,34,0.00,,,0.00,VWS V13.01,2013-05-10 21:01:00,
2013-05-10 17:02:00,67.8,38.5,0.00,North,0,0.0,0.0,34,0.00,,,0.00,VWS V13.01,2013-05-10 21:02:00,
2013-05-10 17:03:00,68.9,35.4,0.00,North,0,0.0,0.0,29,0.00,,,0.00,VWS V13.01,2013-05-10 21:03:00,
2013-05-10 17:04:00,67.8,38.5,0.00,North,0,0.0,0.0,34,0.00,,,0.00,VWS V13.01,2013-05-10 21:04:00,
2013-05-10 17:05:00,67.8,38.5,0.00,North,0,0.0,0.0,34,0.00,,,0.00,VWS V13.01,2013-05-10 21:05:00,
2013-05-10 17:08:00,68.9,35.4,0.00,North,0,0.0,0.0,29,0.00,,,0.00,VWS V13.01,2013-05-10 21:08:00,
2013-05-10 17:13:00,68.9,33.6,0.00,North,0,0.0,0.0,27,0.00,,,0.00,VWS V13.01,2013-05-10 21:13:00,
2013-05-10 17:18:00,68.9,35.4,0.00,North,0,0.0,0.0,29,0.00,,,0.00,VWS V13.01,2013-05-10 21:18:00,
2013-05-10 17:23:00,68.4,37.4,0.00,North,0,0.0,0.0,32,0.00,,,0.00,VWS V13.01,2013-05-10 21:23:00,
2013-05-10 17:28:00,68.2,37.2,0.00,North,0,0.0,0.0,32,0.00,,,0.00,VWS V13.01,2013-05-10 21:28:00,
2013-05-10 17:33:00,67.8,38.5,0.00,North,0,0.0,0.0,34,0.00,,,0.00,VWS V13.01,2013-05-10 21:33:00,
2013-05-10 17:38:00,67.6,38.3,0.00,North,0,0.0,0.0,34,0.00,,,0.00,VWS V13.01,2013-05-10 21:38:00,
2013-05-10 17:43:00,67.6,38.3,0.00,North,0,0.0,0.0,34,0.00,,,0.00,VWS V13.01,2013-05-10 21:43:00,
2013-05-10 17:48:00,67.6,38.3,0.00,North,0,0.0,0.0,34,0.00,,,0.00,VWS V13.01,2013-05-10 21:48:00,
2013-05-10 17:53:00,67.8,38.5,0.00,North,0,0.0,0.0,34,0.00,,,0.00,VWS V13.01,2013-05-10 21:53:00,
2013-05-10 18:02:00,67.8,38.5,0.00,North,0,0.0,0.0,34,0.00,,,0.00,VWS V13.01,2013-05-10 22:02:00,
2013-05-10 18:07:00,67.8,38.5,0.00,North,0,0.0,0.0,34,0.00,,,0.00,VWS V13.01,2013-05-10 22:07:00,
2013-05-10 18:12:00,68.0,38.6,0.00,North,0,0.0,0.0,34,0.00,,,0.00,VWS V13.01,2013-05-10 22:12:00,
2013-05-10 18:17:00,68.0,37.8,0.00,North,0,0.0,0.0,33,0.00,,,0.00,VWS V13.01,2013-05-10 22:17:00,
2013-05-10 18:22:00,68.2,38.0,0.00,North,0,0.0,0.0,33,0.00,,,0.00,VWS V13.01,2013-05-10 22:22:00,
2013-05-10 18:27:00,68.4,37.4,0.00,North,0,0.0,0.0,32,0.00,,,0.00,VWS V13.01,2013-05-10 22:27:00,
2013-05-10 18:32:00,68.5,36.7,0.00,North,0,0.0,0.0,31,0.00,,,0.00,VWS V13.01,2013-05-10 22:32:00,
2013-05-10 18:37:00,68.7,37.7,0.00,North,0,0.0,0.0,32,0.00,,,0.00,VWS V13.01,2013-05-10 22:37:00,
2013-05-10 18:42:00,68.7,37.7,0.00,North,0,0.0,0.0,32,0.00,,,0.00,VWS V13.01,2013-05-10 22:42:00,
2013-05-10 18:47:00,68.7,34.3,0.00,North,0,0.0,0.0,28,0.00,,,0.00,VWS V13.01,2013-05-10 22:47:00,
2013-05-10 18:52:00,68.9,33.6,0.00,North,0,0.0,0.0,27,0.00,,,0.00,VWS V13.01,2013-05-10 22:52:00,
2013-05-10 18:57:00,68.7,32.5,0.00,North,0,0.0,0.0,26,0.00,,,0.00,VWS V13.01,2013-05-10 22:57:00,
2013-05-10 19:02:00,68.9,32.6,0.00,North,0,0.0,0.0,26,0.00,,,0.00,VWS V13.01,2013-05-10 23:02:00,
2013-05-10 19:07:00,68.9,32.6,0.00,North,0,0.0,0.0,26,0.00,,,0.00,VWS V13.01,2013-05-10 23:07:00,
2013-05-10 19:12:00,68.9,31.7,0.00,North,0,0.0,0.0,25,0.00,,,0.00,VWS V13.01,2013-05-10 23:12:00,
2013-05-10 19:17:00,68.9,31.7,0.00,North,0,0.0,0.0,25,0.00,,,0.00,VWS V13.01,2013-05-10 23:17:00,
2013-05-10 19:22:00,68.9,30.6,0.00,North,0,0.0,0.0,24,0.00,,,0.00,VWS V13.01,2013-05-10 23:22:00,
2013-05-10 19:27:00,68.9,30.6,0.00,North,0,0.0,0.0,24,0.00,,,0.00,VWS V13.01,2013-05-10 23:27:00,
2013-05-10 19:32:00,68.9,30.6,0.00,North,0,0.0,0.0,24,0.00,,,0.00,VWS V13.01,2013-05-10 23:32:00,
2013-05-10 19:37:00,68.7,30.5,0.00,North,0,0.0,0.0,24,0.00,,,0.00,VWS V13.01,2013-05-10 23:37:00,
2013-05-10 19:42:00,68.7,31.5,0.00,North,0,0.0,0.0,25,0.00,,,0.00,VWS V13.01,2013-05-10 23:42:00,
2013-05-10 19:47:00,68.7,31.5,0.00,North,0,0.0,0.0,25,0.00,,,0.00,VWS V13.01,2013-05-10 23:47:00,
2013-05-10 19:52:00,68.7,32.5,0.00,North,0,0.0,0.0,26,0.00,,,0.00,VWS V13.01,2013-05-10 23:52:00,
2013-05-10 19:57:00,68.4,34.0,0.00,North,0,0.0,0.0,28,0.00,,,0.00,VWS V13.01,2013-05-10 23:57:00,
2013-05-10 20:02:00,67.8,36.9,0.00,North,0,0.0,0.0,32,0.00,,,0.00,VWS V13.01,2013-05-11 00:02:00,
2013-05-10 20:07:00,67.5,37.4,0.00,North,0,0.0,0.0,33,0.00,,,0.00,VWS V13.01,2013-05-11 00:07:00,
2013-05-10 20:12:00,67.3,37.2,0.00,North,0,0.0,0.0,33,0.00,,,0.00,VWS V13.01,2013-05-11 00:12:00,
2013-05-10 20:17:00,67.1,37.1,0.00,North,0,0.0,0.0,33,0.00,,,0.00,VWS V13.01,2013-05-11 00:17:00,
2013-05-10 20:22:00,67.1,37.1,0.00,North,0,0.0,0.0,33,0.00,,,0.00,VWS V13.01,2013-05-11 00:22:00,
2013-05-10 20:27:00,66.7,37.5,0.00,North,0,0.0,0.0,34,0.00,,,0.00,VWS V13.01,2013-05-11 00:27:00,
2013-05-10 20:32:00,66.7,37.5,0.00,North,0,0.0,0.0,34,0.00,,,0.00,VWS V13.01,2013-05-11 00:32:00,
2013-05-10 20:37:00,66.6,38.1,0.00,North,0,0.0,0.0,35,0.00,,,0.04,VWS V13.01,2013-05-11 00:37:00,
2013-05-10 20:42:00,66.2,38.5,0.00,North,0,0.0,0.0,36,0.04,,,0.04,VWS V13.01,2013-05-11 00:42:00,
2013-05-10 20:47:00,65.8,38.9,0.00,North,0,0.0,0.0,37,0.04,,,0.04,VWS V13.01,2013-05-11 00:47:00,
2013-05-10 20:52:00,65.7,39.4,0.00,North,0,0.0,0.0,38,0.04,,,0.04,VWS V13.01,2013-05-11 00:52:00,
2013-05-10 20:57:00,65.1,38.9,0.00,North,0,0.0,0.0,38,0.04,,,0.04,VWS V13.01,2013-05-11 00:57:00,
2013-05-10 21:02:00,64.9,40.7,0.00,North,0,0.0,0.0,41,0.04,,,0.04,VWS V13.01,2013-05-11 01:02:00,
2013-05-10 21:07:00,64.9,42.5,0.00,North,0,0.0,0.0,44,0.04,,,0.04,VWS V13.01,2013-05-11 01:07:00,
2013-05-10 21:13:00,64.8,42.4,0.00,North,0,0.0,0.0,44,0.08,,,0.08,VWS V13.01,2013-05-11 01:13:00,
2013-05-10 21:18:00,65.1,42.7,0.00,North,0,0.0,0.0,44,0.08,,,0.08,VWS V13.01,2013-05-11 01:18:00,
2013-05-10 21:23:00,64.9,42.5,0.00,North,0,0.0,0.0,44,0.08,,,0.08,VWS V13.01,2013-05-11 01:23:00,
2013-05-10 21:28:00,64.8,43.0,0.00,North,0,0.0,0.0,45,0.08,,,0.08,VWS V13.01,2013-05-11 01:28:00,
2013-05-10 21:33:00,64.8,43.0,0.00,North,0,0.0,0.0,45,0.08,,,0.08,VWS V13.01,2013-05-11 01:33:00,
2013-05-10 21:38:00,64.8,43.0,0.00,North,0,0.0,0.0,45,0.08,,,0.08,VWS V13.01,2013-05-11 01:38:00,
2013-05-10 21:43:00,64.9,43.7,0.00,North,0,0.0,0.0,46,0.04,,,0.08,VWS V13.01,2013-05-11 01:43:00,
2013-05-10 21:48:00,64.8,43.0,0.00,North,0,0.0,0.0,45,0.04,,,0.08,VWS V13.01,2013-05-11 01:48:00,
2013-05-10 21:53:00,64.8,43.5,0.00,North,0,0.0,0.0,46,0.04,,,0.08,VWS V13.01,2013-05-11 01:53:00,
2013-05-10 21:58:00,64.8,43.5,0.00,North,0,0.0,0.0,46,0.04,,,0.08,VWS V13.01,2013-05-11 01:58:00,
2013-05-10 22:03:00,64.8,44.1,0.00,North,0,0.0,0.0,47,0.04,,,0.08,VWS V13.01,2013-05-11 02:03:00,
2013-05-10 22:08:00,64.9,43.7,0.00,North,0,0.0,0.0,46,0.04,,,0.08,VWS V13.01,2013-05-11 02:08:00,
2013-05-10 22:13:00,64.9,43.7,0.00,North,0,0.0,0.0,46,0.00,,,0.08,VWS V13.01,2013-05-11 02:13:00,
2013-05-10 22:18:00,64.8,43.5,0.00,North,0,0.0,0.0,46,0.00,,,0.08,VWS V13.01,2013-05-11 02:18:00,
2013-05-10 22:23:00,64.6,43.4,0.00,North,0,0.0,0.0,46,0.00,,,0.08,VWS V13.01,2013-05-11 02:23:00,
2013-05-10 22:28:00,64.6,43.4,0.00,North,0,0.0,0.0,46,0.00,,,0.08,VWS V13.01,2013-05-11 02:28:00,
2013-05-10 22:33:00,64.8,43.5,0.00,North,0,0.0,0.0,46,0.00,,,0.08,VWS V13.01,2013-05-11 02:33:00,
2013-05-10 22:38:00,64.8,43.5,0.00,North,0,0.0,0.0,46,0.00,,,0.08,VWS V13.01,2013-05-11 02:38:00,
2013-05-10 22:43:00,64.8,43.5,0.00,North,0,0.0,0.0,46,0.00,,,0.08,VWS V13.01,2013-05-11 02:43:00,
2013-05-10 22:48:00,64.8,43.5,0.00,North,0,0.0,0.0,46,0.00,,,0.08,VWS V13.01,2013-05-11 02:48:00,
2013-05-10 22:53:00,64.8,43.5,0.00,North,0,0.0,0.0,46,0.00,,,0.08,VWS V13.01,2013-05-11 02:53:00,
2013-05-10 22:58:00,64.8,43.5,0.00,North,0,0.0,0.0,46,0.00,,,0.08,VWS V13.01,2013-05-11 02:58:00,
2013-05-10 23:00:00,64.9,44.8,0.00,North,0,0.0,0.0,48,0.00,,,0.08,VWS V13.01,2013-05-11 03:00:00,
2013-05-10 23:01:00,64.9,44.8,0.00,North,0,0.0,0.0,48,0.00,,,0.08,VWS V13.01,2013-05-11 03:01:00,
2013-05-10 23:02:00,64.9,44.2,0.00,North,0,0.0,0.0,47,0.00,,,0.08,VWS V13.01,2013-05-11 03:02:00,
2013-05-10 23:03:00,64.8,43.5,0.00,North,0,0.0,0.0,46,0.00,,,0.08,VWS V13.01,2013-05-11 03:03:00,
2013-05-10 23:04:00,64.9,44.2,0.00,North,0,0.0,0.0,47,0.00,,,0.08,VWS V13.01,2013-05-11 03:04:00,
2013-05-10 23:05:00,64.9,44.2,0.00,North,0,0.0,0.0,47,0.00,,,0.08,VWS V13.01,2013-05-11 03:05:00,
2013-05-10 23:06:00,64.9,44.2,0.00,North,0,0.0,0.0,47,0.00,,,0.08,VWS V13.01,2013-05-11 03:06:00,
2013-05-10 23:08:00,64.4,43.2,0.00,North,0,0.0,0.0,46,0.00,,,0.08,VWS V13.01,2013-05-11 03:08:00,
2013-05-10 23:13:00,64.2,43.0,0.00,North,0,0.0,0.0,46,0.00,,,0.08,VWS V13.01,2013-05-11 03:13:00,
2013-05-10 23:18:00,64.0,43.4,0.00,North,0,0.0,0.0,47,0.00,,,0.08,VWS V13.01,2013-05-11 03:18:00,
2013-05-10 23:23:00,64.0,43.4,0.00,North,0,0.0,0.0,47,0.00,,,0.08,VWS V13.01,2013-05-11 03:23:00,
2013-05-10 23:28:00,63.9,43.8,0.00,North,0,0.0,0.0,48,0.00,,,0.08,VWS V13.01,2013-05-11 03:28:00,
2013-05-10 23:33:00,64.0,44.0,0.00,North,0,0.0,0.0,48,0.00,,,0.08,VWS V13.01,2013-05-11 03:33:00,
2013-05-10 23:38:00,64.0,44.0,0.00,North,0,0.0,0.0,48,0.00,,,0.08,VWS V13.01,2013-05-11 03:38:00,
2013-05-10 23:43:00,64.2,45.2,0.00,North,0,0.0,0.0,50,0.00,,,0.08,VWS V13.01,2013-05-11 03:43:00,
2013-05-10 23:48:00,64.2,45.2,0.00,North,0,0.0,0.0,50,0.00,,,0.08,VWS V13.01,2013-05-11 03:48:00,
2013-05-10 23:53:00,64.8,45.2,0.00,North,0,0.0,0.0,49,0.00,,,0.08,VWS V13.01,2013-05-11 03:53:00,
2013-05-10 23:58:00,64.8,44.6,0.00,North,0,0.0,0.0,48,0.00,,,0.08,VWS V13.01,2013-05-11 03:58:00,